Location: *
(46.1200°N, 11.2700°E)
Time: 04:48:08
(UTC+00:00)

Cosmos 2322 Rocket - Pass Details

Date: 02 March 2021
Orbit: 832 x 852 km, 71.0° (Epoch: 13 April)

Event Time Altitude Azimuth Distance (km) Brightness Sun altitude
Rises 19:22:44 0° 236° (SW) 3,368 5.9 -24.8°
Reaches altitude 10° 19:25:27 10° 247° (WSW) 2,438 5.2 -25.3°
Maximum altitude 19:30:22 31° 309° (NW) 1,427 3.9 -26.1°
Drops below altitude 10° 19:35:20 10° 11° (N) 2,457 4.7 -26.9°
Sets 19:38:05 0° 21° (NNE) 3,397 5.3 -27.3°
